Time,TemperatureF,DewpointF,PressureIn,WindDirection,WindDirectionDegrees,WindSpeedMPH,WindSpeedGustMPH,Humidity,HourlyPrecipIn,Conditions,Clouds,dailyrainin,SoftwareType,DateUTC
2013-04-28 00:02:00,46.0,38.0,29.60,SSW,213,2.0,-999.0,73,-99.99,,,-99.99,,2013-04-28 05:02:00,
2013-04-28 00:12:00,46.0,38.0,29.60,SSW,213,2.0,-999.0,73,-99.99,,,-99.99,,2013-04-28 05:12:00,
2013-04-28 00:22:00,48.0,38.0,29.59,SW,219,3.0,-999.0,69,-99.99,,,-99.99,,2013-04-28 05:22:00,
2013-04-28 00:32:00,46.0,37.0,29.59,SSW,213,3.0,-999.0,71,-99.99,,,-99.99,,2013-04-28 05:32:00,
2013-04-28 00:42:00,46.0,37.0,29.59,SSW,213,3.0,-999.0,71,-99.99,,,-99.99,,2013-04-28 05:42:00,
2013-04-28 00:52:00,47.0,38.0,29.60,SW,215,2.0,-999.0,70,-99.99,,,-99.99,,2013-04-28 05:52:00,
2013-04-28 01:01:00,45.0,37.0,29.59,SW,215,0.0,-999.0,72,-99.99,,,-99.99,,2013-04-28 06:01:00,
2013-04-28 01:12:00,45.0,37.0,29.59,SW,215,0.0,-999.0,72,-99.99,,,-99.99,,2013-04-28 06:12:00,
2013-04-28 01:21:00,45.0,37.0,29.59,SW,216,0.0,-999.0,74,-99.99,,,-99.99,,2013-04-28 06:21:00,
2013-04-28 01:32:00,43.0,36.0,29.60,SW,216,1.0,-999.0,77,-99.99,,,-99.99,,2013-04-28 06:32:00,
2013-04-28 01:42:00,43.0,36.0,29.60,SW,216,1.0,-999.0,77,-99.99,,,-99.99,,2013-04-28 06:42:00,
2013-04-28 01:51:00,42.0,36.0,29.59,SW,219,0.0,-999.0,80,-99.99,,,-99.99,,2013-04-28 06:51:00,
2013-04-28 02:01:00,43.0,37.0,29.60,SW,219,1.0,-999.0,79,-99.99,,,-99.99,,2013-04-28 07:01:00,
2013-04-28 02:11:00,43.0,37.0,29.60,SW,219,1.0,-999.0,79,-99.99,,,-99.99,,2013-04-28 07:11:00,
2013-04-28 02:21:00,45.0,37.0,29.59,SW,218,1.0,-999.0,73,-99.99,,,-99.99,,2013-04-28 07:21:00,
2013-04-28 02:31:00,44.0,37.0,29.58,SW,218,0.0,-999.0,75,-99.99,,,-99.99,,2013-04-28 07:31:00,
2013-04-28 02:42:00,44.0,37.0,29.58,SW,218,0.0,-999.0,75,-99.99,,,-99.99,,2013-04-28 07:42:00,
2013-04-28 02:52:00,44.0,37.0,29.57,SW,219,1.0,-999.0,77,-99.99,,,-99.99,,2013-04-28 07:52:00,
2013-04-28 03:02:00,44.0,37.0,29.57,SW,219,0.0,-999.0,75,-99.99,,,-99.99,,2013-04-28 08:02:00,
2013-04-28 03:11:00,44.0,37.0,29.57,SW,219,0.0,-999.0,75,-99.99,,,-99.99,,2013-04-28 08:11:00,
2013-04-28 03:21:00,43.0,36.0,29.57,SW,219,1.0,-999.0,76,-99.99,,,-99.99,,2013-04-28 08:21:00,
2013-04-28 03:32:00,44.0,37.0,29.55,SW,218,0.0,-999.0,75,-99.99,,,-99.99,,2013-04-28 08:32:00,
2013-04-28 03:42:00,44.0,37.0,29.55,SW,218,0.0,-999.0,75,-99.99,,,-99.99,,2013-04-28 08:42:00,
2013-04-28 03:52:00,44.0,37.0,29.55,SW,218,1.0,-999.0,75,-99.99,,,-99.99,,2013-04-28 08:52:00,
2013-04-28 04:01:00,45.0,37.0,29.54,SSW,209,6.0,-999.0,73,-99.99,,,-99.99,,2013-04-28 09:01:00,
2013-04-28 04:11:00,45.0,37.0,29.54,SSW,209,6.0,-999.0,73,-99.99,,,-99.99,,2013-04-28 09:11:00,
2013-04-28 04:21:00,45.0,36.0,29.57,West,280,5.0,-999.0,71,-99.99,,,-99.99,,2013-04-28 09:21:00,
2013-04-28 04:33:00,47.0,37.0,29.57,WSW,252,4.0,-999.0,67,-99.99,,,-99.99,,2013-04-28 09:33:00,
2013-04-28 04:42:00,47.0,37.0,29.57,WSW,252,4.0,-999.0,67,-99.99,,,-99.99,,2013-04-28 09:42:00,
2013-04-28 04:53:00,45.0,36.0,29.57,WSW,246,4.0,-999.0,70,-99.99,,,-99.99,,2013-04-28 09:53:00,
2013-04-28 05:03:00,46.0,36.0,29.57,West,266,9.0,-999.0,68,-99.99,,,-99.99,,2013-04-28 10:03:00,
2013-04-28 05:12:00,46.0,36.0,29.57,West,266,9.0,-999.0,68,-99.99,,,-99.99,,2013-04-28 10:12:00,
2013-04-28 05:22:00,45.0,36.0,29.58,West,269,11.0,-999.0,70,-99.99,,,-99.99,,2013-04-28 10:22:00,
2013-04-28 05:32:00,45.0,36.0,29.58,West,268,11.0,-999.0,70,-99.99,,,-99.99,,2013-04-28 10:32:00,
2013-04-28 05:42:00,45.0,36.0,29.58,West,268,11.0,-999.0,70,-99.99,,,-99.99,,2013-04-28 10:42:00,
2013-04-28 05:52:00,45.0,36.0,29.58,West,267,13.0,-999.0,70,-99.99,,,-99.99,,2013-04-28 10:52:00,
2013-04-28 06:02:00,45.0,36.0,29.59,West,267,13.0,-999.0,70,-99.99,,,-99.99,,2013-04-28 11:02:00,
2013-04-28 06:11:00,45.0,36.0,29.59,West,267,13.0,-999.0,70,-99.99,,,-99.99,,2013-04-28 11:11:00,
2013-04-28 06:22:00,45.0,35.0,29.60,West,281,11.0,-999.0,69,-99.99,,,-99.99,,2013-04-28 11:22:00,
2013-04-28 06:32:00,44.0,36.0,29.61,West,271,8.0,-999.0,72,-99.99,,,-99.99,,2013-04-28 11:32:00,
2013-04-28 06:42:00,44.0,36.0,29.61,West,271,8.0,-999.0,72,-99.99,,,-99.99,,2013-04-28 11:42:00,
2013-04-28 06:52:00,44.0,36.0,29.61,West,265,10.0,-999.0,73,-99.99,,,-99.99,,2013-04-28 11:52:00,
2013-04-28 07:02:00,44.0,36.0,29.62,West,267,11.0,-999.0,73,-99.99,,,-99.99,,2013-04-28 12:02:00,
2013-04-28 07:12:00,44.0,36.0,29.62,West,267,11.0,-999.0,73,-99.99,,,-99.99,,2013-04-28 12:12:00,
2013-04-28 07:21:00,43.0,35.0,29.62,West,267,10.0,-999.0,74,-99.99,,,-99.99,,2013-04-28 12:21:00,
2013-04-28 07:32:00,42.0,35.0,29.63,West,276,11.0,-999.0,75,-99.99,,,-99.99,,2013-04-28 12:32:00,
2013-04-28 07:42:00,42.0,35.0,29.63,West,276,11.0,-999.0,75,-99.99,,,-99.99,,2013-04-28 12:42:00,
2013-04-28 07:52:00,42.0,35.0,29.65,West,281,11.0,-999.0,76,-99.99,,,-99.99,,2013-04-28 12:52:00,
2013-04-28 08:02:00,42.0,35.0,29.66,WNW,293,12.0,-999.0,77,-99.99,,,-99.99,,2013-04-28 13:02:00,
2013-04-28 08:11:00,42.0,35.0,29.66,WNW,293,12.0,-999.0,77,-99.99,,,-99.99,,2013-04-28 13:11:00,
2013-04-28 08:21:00,42.0,35.0,29.67,WNW,287,11.0,-999.0,77,-99.99,,,-99.99,,2013-04-28 13:21:00,
2013-04-28 08:32:00,42.0,35.0,29.69,WNW,297,11.0,-999.0,77,-99.99,,,-99.99,,2013-04-28 13:32:00,
2013-04-28 08:42:00,42.0,35.0,29.69,WNW,297,11.0,-999.0,77,-99.99,,,-99.99,,2013-04-28 13:42:00,
2013-04-28 08:52:00,41.0,35.0,29.70,NW,309,11.0,-999.0,79,-99.99,,,-99.99,,2013-04-28 13:52:00,
2013-04-28 09:02:00,42.0,36.0,29.71,WNW,303,10.0,-999.0,79,-99.99,,,-99.99,,2013-04-28 14:02:00,
2013-04-28 09:11:00,42.0,36.0,29.71,WNW,303,10.0,-999.0,79,-99.99,,,-99.99,,2013-04-28 14:11:00,
2013-04-28 09:21:00,42.0,36.0,29.71,WNW,295,9.0,-999.0,78,-99.99,,,-99.99,,2013-04-28 14:21:00,
2013-04-28 09:32:00,42.0,36.0,29.72,WNW,294,10.0,-999.0,80,-99.99,,,-99.99,,2013-04-28 14:32:00,
2013-04-28 09:42:00,42.0,36.0,29.72,WNW,294,10.0,-999.0,80,-99.99,,,-99.99,,2013-04-28 14:42:00,
2013-04-28 09:52:00,43.0,37.0,29.73,WNW,299,11.0,-999.0,79,-99.99,,,-99.99,,2013-04-28 14:52:00,
2013-04-28 10:02:00,43.0,37.0,29.74,West,281,11.0,-999.0,78,-99.99,,,-99.99,,2013-04-28 15:02:00,
2013-04-28 10:12:00,43.0,37.0,29.74,West,281,11.0,-999.0,78,-99.99,,,-99.99,,2013-04-28 15:12:00,
2013-04-28 10:21:00,43.0,37.0,29.75,NW,309,12.0,-999.0,78,-99.99,,,-99.99,,2013-04-28 15:21:00,
2013-04-28 10:32:00,43.0,37.0,29.75,WNW,284,8.0,-999.0,79,-99.99,,,-99.99,,2013-04-28 15:32:00,
2013-04-28 10:42:00,43.0,37.0,29.75,WNW,284,8.0,-999.0,79,-99.99,,,-99.99,,2013-04-28 15:42:00,
2013-04-28 10:53:00,44.0,38.0,29.75,WNW,294,8.0,-999.0,78,-99.99,,,-99.99,,2013-04-28 15:53:00,
2013-04-28 11:03:00,45.0,38.0,29.76,WNW,294,10.0,-999.0,76,-99.99,,,-99.99,,2013-04-28 16:03:00,
2013-04-28 11:13:00,45.0,38.0,29.76,WNW,294,10.0,-999.0,76,-99.99,,,-99.99,,2013-04-28 16:13:00,
2013-04-28 11:23:00,44.0,35.0,29.77,WNW,300,11.0,-999.0,71,-99.99,,,-99.99,,2013-04-28 16:23:00,
2013-04-28 11:33:00,45.0,36.0,29.78,WNW,300,11.0,-999.0,71,-99.99,,,-99.99,,2013-04-28 16:33:00,
2013-04-28 11:42:00,45.0,36.0,29.78,WNW,300,11.0,-999.0,71,-99.99,,,-99.99,,2013-04-28 16:42:00,
2013-04-28 11:52:00,45.0,36.0,29.78,NW,304,12.0,-999.0,70,-99.99,,,-99.99,,2013-04-28 16:52:00,
2013-04-28 12:02:00,46.0,34.0,29.78,NW,304,12.0,-999.0,62,-99.99,,,-99.99,,2013-04-28 17:02:00,
2013-04-28 12:12:00,46.0,34.0,29.78,NW,304,12.0,-999.0,62,-99.99,,,-99.99,,2013-04-28 17:12:00,
2013-04-28 12:22:00,47.0,33.0,29.79,NW,316,12.0,-999.0,59,-99.99,,,-99.99,,2013-04-28 17:22:00,
2013-04-28 12:32:00,47.0,33.0,29.80,WNW,295,14.0,-999.0,58,-99.99,,,-99.99,,2013-04-28 17:32:00,
2013-04-28 12:42:00,47.0,33.0,29.80,WNW,295,14.0,-999.0,58,-99.99,,,-99.99,,2013-04-28 17:42:00,
2013-04-28 12:51:00,48.0,34.0,29.80,NW,319,14.0,-999.0,58,-99.99,,,-99.99,,2013-04-28 17:51:00,
2013-04-28 13:02:00,48.0,32.0,29.81,NW,306,14.0,-999.0,53,-99.99,,,-99.99,,2013-04-28 18:02:00,
2013-04-28 13:12:00,48.0,32.0,29.81,NW,306,14.0,-999.0,53,-99.99,,,-99.99,,2013-04-28 18:12:00,
2013-04-28 13:22:00,48.0,32.0,29.81,NNW,334,14.0,-999.0,53,-99.99,,,-99.99,,2013-04-28 18:22:00,
2013-04-28 13:32:00,48.0,32.0,29.82,WNW,297,14.0,-999.0,54,-99.99,,,-99.99,,2013-04-28 18:32:00,
2013-04-28 13:42:00,48.0,32.0,29.82,WNW,297,14.0,-999.0,54,-99.99,,,-99.99,,2013-04-28 18:42:00,
2013-04-28 13:52:00,48.0,31.0,29.83,WNW,294,13.0,-999.0,52,-99.99,,,-99.99,,2013-04-28 18:52:00,
2013-04-28 14:02:00,49.0,34.0,29.83,WNW,302,13.0,-999.0,55,-99.99,,,-99.99,,2013-04-28 19:02:00,
2013-04-28 14:11:00,49.0,34.0,29.83,WNW,302,13.0,-999.0,55,-99.99,,,-99.99,,2013-04-28 19:11:00,
2013-04-28 14:21:00,49.0,34.0,29.83,WNW,295,15.0,-999.0,55,-99.99,,,-99.99,,2013-04-28 19:21:00,
2013-04-28 14:32:00,49.0,32.0,29.83,WNW,288,14.0,-999.0,52,-99.99,,,-99.99,,2013-04-28 19:32:00,
2013-04-28 14:41:00,49.0,32.0,29.83,WNW,288,14.0,-999.0,52,-99.99,,,-99.99,,2013-04-28 19:41:00,
2013-04-28 14:52:00,50.0,33.0,29.83,WNW,289,13.0,-999.0,52,-99.99,,,-99.99,,2013-04-28 19:52:00,
2013-04-28 15:02:00,50.0,29.0,29.83,NW,317,18.0,-999.0,44,-99.99,,,-99.99,,2013-04-28 20:02:00,
2013-04-28 15:11:00,50.0,29.0,29.83,NW,317,18.0,-999.0,44,-99.99,,,-99.99,,2013-04-28 20:11:00,
2013-04-28 15:22:00,49.0,30.0,29.84,WNW,303,17.0,-999.0,47,-99.99,,,-99.99,,2013-04-28 20:22:00,
2013-04-28 15:32:00,49.0,29.0,29.83,NW,304,17.0,-999.0,46,-99.99,,,-99.99,,2013-04-28 20:32:00,
2013-04-28 15:42:00,49.0,29.0,29.83,NW,304,17.0,-999.0,46,-99.99,,,-99.99,,2013-04-28 20:42:00,
2013-04-28 15:52:00,49.0,30.0,29.84,WNW,302,16.0,-999.0,48,-99.99,,,-99.99,,2013-04-28 20:52:00,
2013-04-28 16:01:00,48.0,27.0,29.84,NW,321,19.0,-999.0,43,-99.99,,,-99.99,,2013-04-28 21:01:00,
2013-04-28 16:11:00,48.0,27.0,29.84,NW,321,19.0,-999.0,43,-99.99,,,-99.99,,2013-04-28 21:11:00,
2013-04-28 16:22:00,48.0,28.0,29.85,NW,315,20.0,-999.0,45,-99.99,,,-99.99,,2013-04-28 21:22:00,
2013-04-28 16:33:00,48.0,28.0,29.85,NW,316,19.0,-999.0,46,-99.99,,,-99.99,,2013-04-28 21:33:00,
2013-04-28 16:42:00,48.0,28.0,29.85,NW,316,19.0,-999.0,46,-99.99,,,-99.99,,2013-04-28 21:42:00,
2013-04-28 16:52:00,48.0,30.0,29.85,NW,311,17.0,-999.0,50,-99.99,,,-99.99,,2013-04-28 21:52:00,
2013-04-28 17:03:00,47.0,28.0,29.85,NNW,333,18.0,-999.0,47,-99.99,,,-99.99,,2013-04-28 22:03:00,
2013-04-28 17:12:00,47.0,28.0,29.85,NNW,333,18.0,-999.0,47,-99.99,,,-99.99,,2013-04-28 22:12:00,
2013-04-28 17:22:00,47.0,28.0,29.86,NW,321,16.0,-999.0,48,-99.99,,,-99.99,,2013-04-28 22:22:00,
2013-04-28 17:33:00,48.0,28.0,29.86,NW,322,16.0,-999.0,46,-99.99,,,-99.99,,2013-04-28 22:33:00,
2013-04-28 17:42:00,48.0,28.0,29.86,NW,322,16.0,-999.0,46,-99.99,,,-99.99,,2013-04-28 22:42:00,
2013-04-28 17:52:00,48.0,26.0,29.87,NNW,327,16.0,-999.0,42,-99.99,,,-99.99,,2013-04-28 22:52:00,
2013-04-28 18:02:00,48.0,26.0,29.87,NNW,341,16.0,-999.0,42,-99.99,,,-99.99,,2013-04-28 23:02:00,
2013-04-28 18:12:00,48.0,26.0,29.87,NNW,341,16.0,-999.0,42,-99.99,,,-99.99,,2013-04-28 23:12:00,
2013-04-28 18:22:00,48.0,29.0,29.87,NNW,331,14.0,-999.0,47,-99.99,,,-99.99,,2013-04-28 23:22:00,
2013-04-28 18:32:00,47.0,27.0,29.87,WNW,298,14.0,-999.0,45,-99.99,,,-99.99,,2013-04-28 23:32:00,
2013-04-28 18:42:00,47.0,27.0,29.87,WNW,298,14.0,-999.0,45,-99.99,,,-99.99,,2013-04-28 23:42:00,
2013-04-28 18:52:00,48.0,30.0,29.88,NW,308,12.0,-999.0,49,-99.99,,,-99.99,,2013-04-28 23:52:00,
2013-04-28 19:01:00,48.0,29.0,29.88,NW,312,9.0,-999.0,47,-99.99,,,-99.99,,2013-04-29 00:01:00,
2013-04-28 19:11:00,48.0,29.0,29.88,NW,312,9.0,-999.0,47,-99.99,,,-99.99,,2013-04-29 00:11:00,
2013-04-28 19:22:00,48.0,27.0,29.88,NNW,329,10.0,-999.0,44,-99.99,,,-99.99,,2013-04-29 00:22:00,
2013-04-28 19:32:00,47.0,28.0,29.89,NW,319,10.0,-999.0,47,-99.99,,,-99.99,,2013-04-29 00:32:00,
2013-04-28 19:41:00,47.0,28.0,29.89,NW,319,10.0,-999.0,47,-99.99,,,-99.99,,2013-04-29 00:41:00,
2013-04-28 19:52:00,47.0,28.0,29.88,NW,311,5.0,-999.0,47,-99.99,,,-99.99,,2013-04-29 00:52:00,
2013-04-28 20:01:00,47.0,29.0,29.88,NW,311,4.0,-999.0,49,-99.99,,,-99.99,,2013-04-29 01:01:00,
2013-04-28 20:12:00,46.0,28.0,29.88,NW,309,5.0,-999.0,50,-99.99,,,-99.99,,2013-04-29 01:12:00,
2013-04-28 20:21:00,46.0,28.0,29.88,NW,309,5.0,-999.0,50,-99.99,,,-99.99,,2013-04-29 01:21:00,
2013-04-28 20:32:00,45.0,29.0,29.88,WNW,303,3.0,-999.0,54,-99.99,,,-99.99,,2013-04-29 01:32:00,
2013-04-28 20:42:00,45.0,29.0,29.88,WNW,303,3.0,-999.0,54,-99.99,,,-99.99,,2013-04-29 01:42:00,
2013-04-28 20:52:00,43.0,28.0,29.88,WNW,299,5.0,-999.0,54,-99.99,,,-99.99,,2013-04-29 01:52:00,
2013-04-28 21:02:00,43.0,28.0,29.88,WNW,294,7.0,-999.0,55,-99.99,,,-99.99,,2013-04-29 02:02:00,
2013-04-28 21:11:00,43.0,28.0,29.88,WNW,294,7.0,-999.0,55,-99.99,,,-99.99,,2013-04-29 02:11:00,
2013-04-28 21:21:00,41.0,28.0,29.88,WNW,293,4.0,-999.0,59,-99.99,,,-99.99,,2013-04-29 02:21:00,
2013-04-28 21:32:00,39.0,28.0,29.89,WNW,285,5.0,-999.0,64,-99.99,,,-99.99,,2013-04-29 02:32:00,
2013-04-28 21:41:00,39.0,28.0,29.89,WNW,285,5.0,-999.0,64,-99.99,,,-99.99,,2013-04-29 02:41:00,
2013-04-28 21:51:00,38.0,28.0,29.89,WNW,284,1.0,-999.0,66,-99.99,,,-99.99,,2013-04-29 02:51:00,
2013-04-28 22:01:00,36.0,28.0,29.89,WNW,284,1.0,-999.0,71,-99.99,,,-99.99,,2013-04-29 03:01:00,
2013-04-28 22:12:00,36.0,28.0,29.89,WNW,284,1.0,-999.0,71,-99.99,,,-99.99,,2013-04-29 03:12:00,
2013-04-28 22:21:00,35.0,28.0,29.90,WNW,285,1.0,-999.0,74,-99.99,,,-99.99,,2013-04-29 03:21:00,
2013-04-28 22:33:00,34.0,28.0,29.90,WNW,285,0.0,-999.0,77,-99.99,,,-99.99,,2013-04-29 03:33:00,
2013-04-28 22:42:00,34.0,28.0,29.90,WNW,285,0.0,-999.0,77,-99.99,,,-99.99,,2013-04-29 03:42:00,
2013-04-28 22:52:00,34.0,28.0,29.89,WNW,285,0.0,-999.0,79,-99.99,,,-99.99,,2013-04-29 03:52:00,
2013-04-28 23:03:00,32.0,27.0,29.88,WNW,284,0.0,-999.0,81,-99.99,,,-99.99,,2013-04-29 04:03:00,
2013-04-28 23:13:00,32.0,27.0,29.88,WNW,284,0.0,-999.0,81,-99.99,,,-99.99,,2013-04-29 04:13:00,
2013-04-28 23:23:00,32.0,28.0,29.88,WNW,284,0.0,-999.0,84,-99.99,,,-99.99,,2013-04-29 04:23:00,
2013-04-28 23:33:00,33.0,28.0,29.88,WNW,285,1.0,-999.0,82,-99.99,,,-99.99,,2013-04-29 04:33:00,
2013-04-28 23:43:00,33.0,28.0,29.88,WNW,285,1.0,-999.0,82,-99.99,,,-99.99,,2013-04-29 04:43:00,
2013-04-28 23:52:00,35.0,29.0,29.87,WNW,285,2.0,-999.0,80,-99.99,,,-99.99,,2013-04-29 04:52:00,